Hauptseite
METAR-TAF:

METAR-TAF

Flughäfen :

Alpnach, Schweiz

Militärflugplatz Alpnach

Breite: 46-56-19N, Länge: 8-17-03E, Höhe: 440 m

Beobachtung

Neuester Wetterbericht von vor 5 Minuten, um 09:50 UTC
Wind 2 kt aus unterschiedlichen Richtungen
Temperatur 18°C
Luftfeuchtigkeit 59%
Luftdruck 1029 hPa
Sichtweite 10 km oder mehr
keine Wolken unter 1500 m und keine Kumulonimbus oder Gewitterwolken

METAR: LSMA 190950Z VRB02KT CAVOK 18/10 Q1029 RMK BLU

Zeit: 11:55 (09:55 UTC)


TAF: fehlend

Wetterbeobachtungen und Prognosen von mehr als 4000 Flughäfen (METAR und TAF Bericht).

Die verfügbaren Stationen werden durch gelbe und rote Markierungen auf der Karte dargestellt.

Führen Sie die Maus auf sie, um den Namen der Station zu sehen.

Darauf klicken, um die Beobachtung von Wetterbeobachtungen und Prognosen zu sehen.

Um die Karte zu ändern : klicken Sie auf den grünen Tasten mit einem schwarzen Kreuz Zum Vergrößern, auf den grünen Button mit einem Gedankenstrich zu verkleinern, oder auf die grünen Pfeile für benachbarte Karten.


METAR-TAF: